timestamp,surface_pressure_avg,surface_temp_avg,battery_voltage,lat,long
2019-09-17 00:00:00+00:00,343.7614,14.3,12.97,47.84626,-54.09684
2019-09-17 00:10:00+00:00,353.5613,14.3,12.89,47.84626,-54.09684
2019-09-17 00:20:00+00:00,356.6813,14.3,12.97,47.84626,-54.09684
2019-09-17 00:30:00+00:00,357.1279,14.3,12.97,47.84626,-54.09684
2019-09-17 00:40:00+00:00,363.5513,14.3,12.97,47.84626,-54.09684
2019-09-17 00:50:00+00:00,367.3013,14.3,12.97,47.84626,-54.09684
2019-09-17 01:00:00+00:00,363.8463,14.3,12.97,47.84626,-54.09684
2019-09-17 01:10:00+00:00,363.3064,14.3,12.89,47.84626,-54.09684
2019-09-17 01:20:00+00:00,364.1663,14.3,12.97,47.84626,-54.09684
2019-09-17 01:30:00+00:00,363.6229,14.3,12.97,47.84626,-54.09684
2019-09-17 01:40:00+00:00,359.1547,14.3,12.97,47.84626,-54.09684
2019-09-17 01:50:00+00:00,356.8446,14.3,12.97,47.84626,-54.09684
2019-09-17 02:00:00+00:00,356.9962,14.3,12.89,47.84626,-54.09684
2019-09-17 02:10:00+00:00,353.4696,14.3,12.81,47.84626,-54.09684
2019-09-17 02:20:00+00:00,348.4163,14.3,12.97,47.84626,-54.09684
2019-09-17 02:30:00+00:00,344.8314,14.3,12.97,47.84626,-54.09684
2019-09-17 02:40:00+00:00,342.2963,14.3,12.97,47.84626,-54.09684
2019-09-17 02:50:00+00:00,335.5247,14.3,12.97,47.84626,-54.09684
2019-09-17 03:00:00+00:00,331.6246,14.3,12.89,47.84626,-54.09684
2019-09-17 03:10:00+00:00,328.173,14.3,12.81,47.84626,-54.09684
2019-09-17 03:20:00+00:00,320.9297,14.3,12.97,47.84626,-54.09684
2019-09-17 03:30:00+00:00,313.538,14.35,12.97,47.84626,-54.09684
2019-09-17 03:40:00+00:00,309.1597,14.39,12.97,47.84626,-54.09684
2019-09-17 03:50:00+00:00,303.2414,14.4,12.97,47.84626,-54.09684
2019-09-17 04:00:00+00:00,295.203,14.4,12.89,47.84626,-54.09684
2019-09-17 04:10:00+00:00,290.1197,14.4,12.81,47.84626,-54.09684
2019-09-17 04:20:00+00:00,285.6248,14.5,12.89,47.84626,-54.09684
2019-09-17 04:30:00+00:00,276.5364,14.5,12.97,47.84626,-54.09684
2019-09-17 04:40:00+00:00,266.2798,14.5,12.97,47.84626,-54.09684
2019-09-17 04:50:00+00:00,263.1863,14.5,12.97,47.84626,-54.09684
2019-09-17 05:00:00+00:00,258.7247,14.5,12.89,47.84626,-54.09684
2019-09-17 05:10:00+00:00,250.8414,14.5,12.81,47.84626,-54.09684
2019-09-17 05:20:00+00:00,243.9965,14.5,12.89,47.84626,-54.09684
2019-09-17 05:30:00+00:00,239.5647,14.5,12.89,47.84626,-54.09684
2019-09-17 05:40:00+00:00,233.0348,14.5,12.97,47.84626,-54.09684
2019-09-17 05:50:00+00:00,225.1714,14.5,12.97,47.84626,-54.09684
2019-09-17 06:00:00+00:00,216.1831,14.5,12.89,47.84626,-54.09684
2019-09-17 06:10:00+00:00,207.7581,14.5,12.81,47.84626,-54.09684
2019-09-17 06:20:00+00:00,203.7748,14.5,12.89,47.84626,-54.09684
2019-09-17 06:30:00+00:00,199.5481,14.5,12.89,47.84626,-54.09684
2019-09-17 06:40:00+00:00,195.6648,14.5,12.89,47.84626,-54.09684
2019-09-17 06:50:00+00:00,195.5732,14.4,12.97,47.84626,-54.09684
2019-09-17 07:00:00+00:00,197.4981,14.4,12.89,47.84626,-54.09684
2019-09-17 07:10:00+00:00,196.8497,14.42,12.81,47.84626,-54.09684
2019-09-17 07:20:00+00:00,193.2631,14.4,12.89,47.84626,-54.09684
2019-09-17 07:30:00+00:00,195.1331,14.39,12.89,47.84626,-54.09684
2019-09-17 07:40:00+00:00,201.5764,14.39,12.89,47.84626,-54.09684
2019-09-17 07:50:00+00:00,203.0581,14.4,12.89,47.84626,-54.09684
2019-09-17 08:00:00+00:00,203.6864,14.4,12.81,47.84626,-54.09684
2019-09-17 08:10:00+00:00,208.6248,14.4,12.73,47.84626,-54.09684
2019-09-17 08:20:00+00:00,214.8248,14.38,12.89,47.84626,-54.09684
2019-09-17 08:30:00+00:00,221.0948,14.38,12.89,47.84626,-54.09684
2019-09-17 08:40:00+00:00,227.9548,14.4,12.89,47.84626,-54.09684
2019-09-17 08:50:00+00:00,233.3048,14.3,12.89,47.84626,-54.09684
2019-09-17 09:00:00+00:00,238.8981,14.33,12.81,47.84626,-54.09684
2019-09-17 09:10:00+00:00,244.8748,14.3,12.73,47.84626,-54.09684
2019-09-17 09:20:00+00:00,247.2631,14.2,12.81,47.84626,-54.09684
2019-09-17 09:30:00+00:00,248.6731,14.25,12.81,47.84626,-54.09684
2019-09-17 09:40:00+00:00,254.218,14.3,12.89,47.84626,-54.09684
2019-09-17 09:50:00+00:00,261.983,14.3,12.89,47.84626,-54.09684
2019-09-17 10:00:00+00:00,265.7331,14.3,12.81,47.84626,-54.09684
2019-09-17 10:10:00+00:00,269.8098,14.3,12.73,47.84626,-54.09684
2019-09-17 10:20:00+00:00,276.5397,14.14,12.81,47.84626,-54.09684
2019-09-17 10:30:00+00:00,282.993,14.29,12.81,47.84626,-54.09684
2019-09-17 10:40:00+00:00,284.3713,14.29,12.81,47.84626,-54.09684
2019-09-17 10:50:00+00:00,287.8181,14.3,12.81,47.84626,-54.09684
2019-09-17 11:00:00+00:00,295.1414,14.3,12.81,47.84626,-54.09684
2019-09-17 11:10:00+00:00,300.4297,14.3,12.73,47.84626,-54.09684
2019-09-17 11:20:00+00:00,301.8113,14.3,12.81,47.84626,-54.09684
2019-09-17 11:30:00+00:00,309.6996,14.3,12.81,47.84626,-54.09684
2019-09-17 11:40:00+00:00,320.5596,14.3,12.89,47.84626,-54.09684
2019-09-17 11:50:00+00:00,324.728,14.3,12.89,47.84626,-54.09684
2019-09-17 12:00:00+00:00,328.7413,14.3,12.81,47.84626,-54.09684
2019-09-17 12:10:00+00:00,339.3612,14.29,12.81,47.84626,-54.09684
2019-09-17 12:20:00+00:00,347.173,14.3,12.89,47.84626,-54.09684
2019-09-17 12:30:00+00:00,348.4197,14.29,12.97,47.84626,-54.09684
2019-09-17 12:40:00+00:00,352.0096,14.21,13.05,47.84626,-54.09684
2019-09-17 12:50:00+00:00,358.3013,14.23,13.21,47.84626,-54.09684
2019-09-17 13:00:00+00:00,360.8479,14.21,13.21,47.84626,-54.09684
2019-09-17 13:10:00+00:00,358.8979,14.21,13.13,47.84626,-54.09684
2019-09-17 13:20:00+00:00,359.4213,14.24,13.29,47.84626,-54.09684
2019-09-17 13:30:00+00:00,361.4429,14.2,13.29,47.84626,-54.09684
2019-09-17 13:40:00+00:00,362.0312,14.2,13.37,47.84626,-54.09684
2019-09-17 13:50:00+00:00,359.0963,14.2,13.44,47.84626,-54.09684
2019-09-17 14:00:00+00:00,355.8313,14.2,13.44,47.84626,-54.09684
2019-09-17 14:10:00+00:00,354.3413,14.2,13.37,47.84626,-54.09684
2019-09-17 14:20:00+00:00,350.3079,14.2,13.53,47.84626,-54.09684
2019-09-17 14:30:00+00:00,346.5763,14.2,13.6,47.84626,-54.09684
2019-09-17 14:40:00+00:00,344.2847,14.2,13.6,47.84626,-54.09684
2019-09-17 14:50:00+00:00,339.1064,14.2,13.6,47.84626,-54.09684
2019-09-17 15:00:00+00:00,335.3863,14.18,13.6,47.84626,-54.09684
2019-09-17 15:10:00+00:00,333.6047,14.14,13.53,47.84626,-54.09684
2019-09-17 15:20:00+00:00,331.0413,14.14,13.68,47.84626,-54.09684
2019-09-17 15:30:00+00:00,324.183,14.1,13.76,47.84626,-54.09684
2019-09-17 15:40:00+00:00,316.8663,14.1,13.84,47.84626,-54.09684
2019-09-17 15:50:00+00:00,312.1514,14.1,13.84,47.84626,-54.09684
2019-09-17 16:00:00+00:00,305.008,14.1,13.68,47.84626,-54.09684
2019-09-17 16:10:00+00:00,298.0931,14.11,13.68,47.84626,-54.09684
2019-09-17 16:20:00+00:00,290.5314,14.1,13.84,47.84626,-54.09684
2019-09-17 16:30:00+00:00,285.3447,14.1,13.84,47.84626,-54.09684
2019-09-17 16:40:00+00:00,279.7881,14.03,13.84,47.84626,-54.09684
2019-09-17 16:50:00+00:00,272.3964,14.1,14.16,47.84626,-54.09684
2019-09-17 17:00:00+00:00,263.2647,14.1,14.08,47.84626,-54.09684
2019-09-17 17:10:00+00:00,255.2764,14.05,13.92,47.84626,-54.09684
2019-09-17 17:20:00+00:00,248.6548,14.07,14.0,47.84626,-54.09684
2019-09-17 17:30:00+00:00,239.1164,14.1,14.0,47.84626,-54.09684
2019-09-17 17:40:00+00:00,230.5764,14.0,14.08,47.84626,-54.09684
2019-09-17 17:50:00+00:00,226.7731,14.0,14.08,47.84626,-54.09684
2019-09-17 18:00:00+00:00,222.0765,14.01,14.0,47.84626,-54.09684
2019-09-17 18:10:00+00:00,214.2198,14.09,13.92,47.84626,-54.09684
2019-09-17 18:20:00+00:00,209.3631,14.08,14.0,47.84626,-54.09684
2019-09-17 18:30:00+00:00,206.5931,14.06,13.92,47.84626,-54.09684
2019-09-17 18:40:00+00:00,198.5298,14.05,14.08,47.84626,-54.09684
2019-09-17 18:50:00+00:00,189.9464,14.1,14.16,47.84626,-54.09684
2019-09-17 19:00:00+00:00,188.2215,14.1,14.16,47.84626,-54.09684
2019-09-17 19:10:00+00:00,189.3281,14.1,14.0,47.84626,-54.09684
2019-09-17 19:20:00+00:00,184.2248,14.1,14.0,47.84626,-54.09684
2019-09-17 19:30:00+00:00,181.4965,14.1,14.08,47.84626,-54.09684
2019-09-17 19:40:00+00:00,186.8598,14.1,14.08,47.84626,-54.09684
2019-09-17 19:50:00+00:00,192.3765,14.1,14.08,47.84626,-54.09684
2019-09-17 20:00:00+00:00,195.1797,14.1,14.0,47.84626,-54.09684
2019-09-17 20:10:00+00:00,201.7581,14.09,13.84,47.84626,-54.09684
2019-09-17 20:20:00+00:00,208.5464,14.09,13.84,47.84626,-54.09684
2019-09-17 20:30:00+00:00,210.8248,14.0,13.84,47.84626,-54.09684
2019-09-17 20:40:00+00:00,215.6464,14.0,13.92,47.84626,-54.09684
2019-09-17 20:50:00+00:00,224.4048,14.0,13.84,47.84626,-54.09684
2019-09-17 21:00:00+00:00,228.7498,14.0,13.68,47.84626,-54.09684
2019-09-17 21:10:00+00:00,230.8548,13.97,13.53,47.84626,-54.09684
2019-09-17 21:20:00+00:00,237.6614,13.99,13.53,47.84626,-54.09684
2019-09-17 21:30:00+00:00,246.6648,14.0,13.44,47.84626,-54.09684
2019-09-17 21:40:00+00:00,251.0697,14.0,13.44,47.84626,-54.09684
2019-09-17 21:50:00+00:00,254.6947,14.0,13.37,47.84626,-54.09684
2019-09-17 22:00:00+00:00,262.0047,13.99,13.29,47.84626,-54.09684
2019-09-17 22:10:00+00:00,266.4548,14.0,13.13,47.84626,-54.09684
2019-09-17 22:20:00+00:00,265.3214,14.0,13.13,47.84626,-54.09684
2019-09-17 22:30:00+00:00,269.6331,13.99,13.13,47.84626,-54.09684
2019-09-17 22:40:00+00:00,277.9597,13.89,13.13,47.84626,-54.09684
2019-09-17 22:50:00+00:00,277.7481,13.9,13.13,47.84626,-54.09684
2019-09-17 23:00:00+00:00,274.5564,13.87,13.05,47.84626,-54.09684
2019-09-17 23:10:00+00:00,284.0513,13.89,12.89,47.84626,-54.09684
2019-09-17 23:20:00+00:00,293.7963,13.9,12.97,47.84626,-54.09684
2019-09-17 23:30:00+00:00,295.2247,13.88,12.97,47.84626,-54.09684
2019-09-17 23:40:00+00:00,298.8729,13.8,13.05,47.84626,-54.09684
2019-09-17 23:50:00+00:00,309.1297,13.8,13.05,47.84626,-54.09684
